When you browse on this site, cookies collect data to enhance your experience and personalize the content and advertising you see.
Visit our Privacy Policy to learn more. By continuing to use the site, you agree to this use of cookies and data.
  • In Lithuania
  • List of Countries
  • For 7 days
  • Water Temperature
  • Weather Map
  • Weather Widgets
  • user-avatar
    Login

    Hourly Weather Maribor

    Today, 6 April, Monday

    Time Temperature Precipitation Wind Pressure Humidity
    00:00 +7°C° 0 mm 1 mps 730 mmHg 78%
    01:00 +8°C° 0 mm 1 mps 730 mmHg 78%
    02:00 +8°C° 0 mm 1 mps 730 mmHg 79%
    03:00 +7°C° 0 mm 1 mps 730 mmHg 79%
    04:00 +7°C° 0 mm 1 mps 730 mmHg 80%
    05:00 +8°C° 0 mm 1 mps 730 mmHg 79%
    06:00 +8°C° 0 mm 1 mps 730 mmHg 78%
    07:00 +9°C° 0 mm 1 mps 731 mmHg 73%
    08:00 +11°C° 0 mm 1 mps 731 mmHg 63%
    09:00 +13°C° 0 mm 2 mps 731 mmHg 53%
    10:00 +13°C° 0 mm 3 mps 732 mmHg 43%
    11:00 +14°C° 0 mm 3 mps 732 mmHg 41%
    12:00 +16°C° 0 mm 3 mps 732 mmHg 39%
    13:00 +16°C° 0 mm 3 mps 732 mmHg 36%
    14:00 +16°C° 0 mm 3 mps 731 mmHg 36%
    15:00 +15°C° 0 mm 4 mps 731 mmHg 36%
    16:00 +14°C° 0 mm 4 mps 731 mmHg 35%
    17:00 +12°C° 0 mm 3 mps 731 mmHg 43%
    18:00 +10°C° 0 mm 2 mps 731 mmHg 50%
    19:00 +7°C° 0 mm 2 mps 731 mmHg 57%
    20:00 +7°C° 0 mm 1 mps 732 mmHg 59%
    21:00 +7°C° 0 mm 1 mps 733 mmHg 61%
    22:00 +6°C° 0 mm 1 mps 733 mmHg 63%
    23:00 +5°C° 0 mm 1 mps 733 mmHg 64%

    Tomorrow, 7 April, Tuesday

    Time Temperature Precipitation Wind Pressure Humidity
    00:00 +5°C° 0 mm 1 mps 733 mmHg 65%
    01:00 +4°C° 0 mm 1 mps 733 mmHg 66%
    02:00 +4°C° 0 mm 1 mps 733 mmHg 68%
    03:00 +4°C° 0 mm 1 mps 733 mmHg 70%
    04:00 +3°C° 0 mm 1 mps 733 mmHg 72%
    05:00 +4°C° 0 mm 1 mps 733 mmHg 69%
    06:00 +5°C° 0 mm 1 mps 733 mmHg 66%
    07:00 +6°C° 0 mm 1 mps 734 mmHg 62%
    08:00 +8°C° 0 mm 1 mps 734 mmHg 55%
    09:00 +9°C° 0 mm 2 mps 734 mmHg 47%
    10:00 +12°C° 0 mm 2 mps 734 mmHg 39%
    11:00 +13°C° 0 mm 2 mps 734 mmHg 36%
    12:00 +13°C° 0 mm 3 mps 734 mmHg 33%
    13:00 +14°C° 0 mm 3 mps 734 mmHg 30%
    14:00 +14°C° 0 mm 3 mps 733 mmHg 31%
    15:00 +14°C° 0 mm 3 mps 733 mmHg 32%
    16:00 +14°C° 0 mm 3 mps 733 mmHg 33%
    17:00 +13°C° 0 mm 2 mps 733 mmHg 40%
    18:00 +10°C° 0 mm 1 mps 733 mmHg 48%
    19:00 +8°C° 0 mm 1 mps 733 mmHg 56%
    20:00 +7°C° 0 mm 1 mps 733 mmHg 58%
    21:00 +6°C° 0 mm 1 mps 733 mmHg 59%
    22:00 +5°C° 0 mm 0 mps 734 mmHg 61%
    23:00 +4°C° 0 mm 0 mps 734 mmHg 62%

    Day after tomorrow, 8 April, Wednesday

    Time Temperature Precipitation Wind Pressure Humidity
    00:00 +4°C° 0 mm 0 mps 733 mmHg 63%
    01:00 +3°C° 0 mm 0 mps 733 mmHg 63%
    02:00 +3°C° 0 mm 0 mps 733 mmHg 63%
    03:00 +3°C° 0 mm 0 mps 733 mmHg 63%
    04:00 +2°C° 0 mm 0 mps 733 mmHg 63%
    05:00 +4°C° 0 mm 0 mps 733 mmHg 60%
    06:00 +5°C° 0 mm 0 mps 733 mmHg 56%
    07:00 +6°C° 0 mm 0 mps 733 mmHg 52%
    08:00 +10°C° 0 mm 1 mps 733 mmHg 45%
    09:00 +12°C° 0 mm 1 mps 733 mmHg 39%
    10:00 +15°C° 0 mm 1 mps 733 mmHg 32%
    11:00 +16°C° 0 mm 2 mps 732 mmHg 31%
    12:00 +17°C° 0 mm 2 mps 732 mmHg 30%
    13:00 +17°C° 0 mm 2 mps 731 mmHg 29%
    14:00 +17°C° 0 mm 2 mps 731 mmHg 30%
    15:00 +17°C° 0 mm 2 mps 730 mmHg 31%
    16:00 +17°C° 0 mm 2 mps 730 mmHg 33%
    17:00 +14°C° 0 mm 1 mps 729 mmHg 42%
    18:00 +12°C° 0 mm 1 mps 729 mmHg 51%
    19:00 +9°C° 0 mm 1 mps 729 mmHg 60%
    20:00 +9°C° 0 mm 1 mps 729 mmHg 63%
    21:00 +7°C° 0 mm 0 mps 729 mmHg 65%
    22:00 +6°C° 0 mm 0 mps 729 mmHg 68%
    23:00 +6°C° 0 mm 0 mps 729 mmHg 69%

    9 April, Thursday

    Time Temperature Precipitation Wind Pressure Humidity
    00:00 +5°C° 0 mm 0 mps 729 mmHg 70%
    01:00 +6°C° 0 mm 1 mps 729 mmHg 71%
    02:00 +6°C° 0 mm 1 mps 729 mmHg 73%
    03:00 +5°C° 0 mm 1 mps 728 mmHg 74%
    04:00 +5°C° 0 mm 1 mps 728 mmHg 75%
    05:00 +6°C° 0 mm 1 mps 728 mmHg 72%
    06:00 +7°C° 0 mm 1 mps 728 mmHg 68%
    07:00 +7°C° 0 mm 0 mps 728 mmHg 65%
    08:00 +10°C° 0 mm 0 mps 728 mmHg 56%
    09:00 +13°C° 0 mm 0 mps 729 mmHg 47%
    10:00 +18°C° 0 mm 1 mps 729 mmHg 38%
    11:00 +19°C° 0 mm 1 mps 729 mmHg 34%
    12:00 +20°C° 0 mm 1 mps 728 mmHg 31%
    13:00 +21°C° 0 mm 1 mps 728 mmHg 27%
    14:00 +21°C° 0 mm 1 mps 728 mmHg 28%
    15:00 +21°C° 0 mm 1 mps 727 mmHg 29%
    16:00 +20°C° 0 mm 1 mps 727 mmHg 30%
    17:00 +18°C° 0 mm 1 mps 727 mmHg 37%
    18:00 +14°C° 0 mm 1 mps 727 mmHg 45%
    19:00 +10°C° 0 mm 0 mps 726 mmHg 53%
    20:00 +10°C° 0 mm 0 mps 727 mmHg 53%
    21:00 +9°C° 0 mm 0 mps 727 mmHg 53%
    22:00 +9°C° 0 mm 0 mps 727 mmHg 54%
    23:00 +8°C° 0 mm 0 mps 727 mmHg 54%

    10 April, Friday

    Time Temperature Precipitation Wind Pressure Humidity
    00:00 +8°C° 0 mm 0 mps 727 mmHg 55%
    01:00 +9°C° 0 mm 1 mps 727 mmHg 56%
    02:00 +8°C° 0 mm 1 mps 727 mmHg 57%
    03:00 +8°C° 0 mm 1 mps 727 mmHg 58%
    04:00 +8°C° 0 mm 1 mps 727 mmHg 59%
    05:00 +9°C° 0 mm 1 mps 727 mmHg 58%
    06:00 +10°C° 0 mm 1 mps 727 mmHg 57%
    07:00 +10°C° 0 mm 0 mps 728 mmHg 57%
    08:00 +13°C° 0 mm 0 mps 728 mmHg 50%
    09:00 +16°C° 0 mm 0 mps 728 mmHg 44%
    10:00 +19°C° 0 mm 0 mps 728 mmHg 37%
    11:00 +20°C° 0 mm 0 mps 728 mmHg 36%
    12:00 +23°C° 0 mm 1 mps 727 mmHg 35%
    13:00 +23°C° 0 mm 1 mps 727 mmHg 33%
    14:00 +23°C° 0 mm 1 mps 727 mmHg 34%
    15:00 +22°C° 0 mm 1 mps 726 mmHg 35%
    16:00 +22°C° 0 mm 1 mps 726 mmHg 36%
    17:00 +19°C° 0 mm 1 mps 725 mmHg 44%
    18:00 +16°C° 0 mm 1 mps 725 mmHg 52%
    19:00 +13°C° 0 mm 1 mps 725 mmHg 60%
    20:00 +13°C° 0 mm 1 mps 725 mmHg 61%
    21:00 +12°C° 0 mm 1 mps 725 mmHg 62%
    22:00 +12°C° 0 mm 1 mps 725 mmHg 63%
    23:00 +11°C° 0 mm 1 mps 725 mmHg 65%

    11 April, Saturday

    Time Temperature Precipitation Wind Pressure Humidity
    00:00 +11°C° 0 mm 1 mps 725 mmHg 66%
    01:00 +10°C° 0 mm 1 mps 725 mmHg 68%
    02:00 +10°C° 0 mm 1 mps 725 mmHg 69%
    03:00 +10°C° 0 mm 1 mps 725 mmHg 71%
    04:00 +9°C° 0 mm 1 mps 725 mmHg 73%
    05:00 +10°C° 0 mm 1 mps 725 mmHg 71%
    06:00 +11°C° 0 mm 1 mps 725 mmHg 70%
    07:00 +12°C° 0 mm 1 mps 725 mmHg 68%
    08:00 +15°C° 0 mm 1 mps 725 mmHg 60%
    09:00 +18°C° 0 mm 1 mps 725 mmHg 52%
    10:00 +21°C° 0 mm 1 mps 725 mmHg 44%
    11:00 +22°C° 0 mm 1 mps 725 mmHg 40%
    12:00 +23°C° 0 mm 1 mps 725 mmHg 37%
    13:00 +24°C° 0 mm 2 mps 725 mmHg 33%
    14:00 +24°C° 0 mm 2 mps 725 mmHg 33%
    15:00 +24°C° 0 mm 2 mps 724 mmHg 34%
    16:00 +23°C° 0 mm 2 mps 724 mmHg 34%
    17:00 +20°C° 0 mm 2 mps 724 mmHg 40%
    18:00 +17°C° 0 mm 2 mps 723 mmHg 47%
    19:00 +15°C° 0 mm 1 mps 723 mmHg 54%
    20:00 +14°C° 0 mm 1 mps 723 mmHg 53%
    21:00 +13°C° 0 mm 1 mps 724 mmHg 53%
    22:00 +12°C° 0 mm 1 mps 724 mmHg 52%
    23:00 +11°C° 0 mm 1 mps 724 mmHg 54%
    Show more